When you browse on this site, cookies collect data to enhance your experience and personalize the content and advertising you see.
Visit our Privacy Policy to learn more. By continuing to use the site, you agree to this use of cookies and data.
  • In Schweiz
  • Länderverzeichnis
  • Für 7 Tage
  • Wassertemperatur
  • Wetterkarte
  • Widgets
  • user-avatar
    Anmelden

    Stündliche Wetter Metz

    Heute, 15 November, Freitag

    Zeit Temperatur Niederschläge Wind Luftdruck Luftfeuchtigkeit
    00:00 +2°C° 0 mm 5 m/S 733 mmHg 88%
    01:00 +2°C° 0 mm 5 m/S 732 mmHg 89%
    02:00 +1°C° 0 mm 4 m/S 732 mmHg 90%
    03:00 +1°C° 0 mm 4 m/S 731 mmHg 91%
    04:00 +2°C° 0 mm 3 m/S 731 mmHg 91%
    05:00 +3°C° 0 mm 2 m/S 731 mmHg 91%
    06:00 +3°C° 0 mm 2 m/S 731 mmHg 91%
    07:00 +3°C° 0 mm 2 m/S 732 mmHg 90%
    08:00 +4°C° 0 mm 2 m/S 733 mmHg 89%
    09:00 +3°C° 0 mm 3 m/S 734 mmHg 88%
    10:00 +4°C° 0 mm 3 m/S 734 mmHg 86%
    11:00 +4°C° 0 mm 4 m/S 734 mmHg 84%
    12:00 +5°C° 0 mm 5 m/S 735 mmHg 82%
    13:00 +5°C° 0 mm 4 m/S 735 mmHg 81%
    14:00 +5°C° 0 mm 4 m/S 735 mmHg 79%
    15:00 +5°C° 0 mm 3 m/S 735 mmHg 78%
    16:00 +4°C° 0 mm 3 m/S 736 mmHg 81%
    17:00 +4°C° 0 mm 2 m/S 736 mmHg 85%
    18:00 +3°C° 0 mm 2 m/S 736 mmHg 88%
    19:00 +2°C° 0 mm 2 m/S 737 mmHg 89%
    20:00 +2°C° 0 mm 2 m/S 737 mmHg 89%
    21:00 +2°C° 0 mm 2 m/S 738 mmHg 90%
    22:00 +2°C° 0 mm 2 m/S 738 mmHg 90%
    23:00 +3°C° 0 mm 1 m/S 738 mmHg 90%

    Morgen, 16 November, Samstag

    Zeit Temperatur Niederschläge Wind Luftdruck Luftfeuchtigkeit
    00:00 +2°C° 0 mm 1 m/S 738 mmHg 90%
    01:00 +2°C° 0 mm 1 m/S 738 mmHg 90%
    02:00 +2°C° 0 mm 1 m/S 738 mmHg 90%
    03:00 +2°C° 0 mm 1 m/S 738 mmHg 90%
    04:00 +2°C° 0 mm 1 m/S 738 mmHg 90%
    05:00 +2°C° 0 mm 1 m/S 739 mmHg 90%
    06:00 +2°C° 0 mm 1 m/S 739 mmHg 90%
    07:00 +3°C° 0 mm 1 m/S 740 mmHg 87%
    08:00 +4°C° 0 mm 1 m/S 740 mmHg 84%
    09:00 +5°C° 0 mm 1 m/S 741 mmHg 81%
    10:00 +5°C° 0 mm 2 m/S 741 mmHg 78%
    11:00 +6°C° 0 mm 2 m/S 741 mmHg 75%
    12:00 +7°C° 0 mm 2 m/S 742 mmHg 72%
    13:00 +6°C° 0 mm 2 m/S 742 mmHg 75%
    14:00 +6°C° 0 mm 2 m/S 741 mmHg 77%
    15:00 +7°C° 0 mm 1 m/S 741 mmHg 80%
    16:00 +6°C° 0 mm 1 m/S 741 mmHg 83%
    17:00 +5°C° 0 mm 1 m/S 742 mmHg 86%
    18:00 +4°C° 0 mm 1 m/S 742 mmHg 90%
    19:00 +3°C° 0 mm 1 m/S 742 mmHg 90%
    20:00 +3°C° 0 mm 1 m/S 742 mmHg 90%
    21:00 +3°C° 0 mm 1 m/S 742 mmHg 91%
    22:00 +2°C° 0 mm 1 m/S 742 mmHg 91%
    23:00 +2°C° 0 mm 1 m/S 742 mmHg 91%

    übermorgen, 17 November, Sonntag

    Zeit Temperatur Niederschläge Wind Luftdruck Luftfeuchtigkeit
    00:00 +1°C° 0 mm 2 m/S 742 mmHg 91%
    01:00 +1°C° 0 mm 2 m/S 742 mmHg 92%
    02:00 +1°C° 0 mm 2 m/S 742 mmHg 92%
    03:00 +1°C° 0 mm 2 m/S 741 mmHg 93%
    04:00 +1°C° 0 mm 2 m/S 741 mmHg 93%
    05:00 +1°C° 0 mm 2 m/S 741 mmHg 93%
    06:00 +1°C° 0 mm 2 m/S 741 mmHg 93%
    07:00 +1°C° 0 mm 3 m/S 741 mmHg 90%
    08:00 +2°C° 0 mm 3 m/S 741 mmHg 86%
    09:00 +3°C° 0 mm 3 m/S 741 mmHg 83%
    10:00 +4°C° 0 mm 3 m/S 740 mmHg 78%
    11:00 +5°C° 0 mm 4 m/S 739 mmHg 72%
    12:00 +6°C° 0 mm 4 m/S 739 mmHg 67%
    13:00 +5°C° 0.2 mm 4 m/S 739 mmHg 70%
    14:00 +5°C° 0.2 mm 4 m/S 738 mmHg 73%
    15:00 +4°C° 0.2 mm 4 m/S 738 mmHg 76%
    16:00 +4°C° 0.9 mm 4 m/S 738 mmHg 82%
    17:00 +2°C° 0.9 mm 5 m/S 738 mmHg 87%
    18:00 +1°C° 0.9 mm 5 m/S 738 mmHg 93%
    19:00 +2°C° 0.2 mm 5 m/S 738 mmHg 93%
    20:00 +3°C° 0.2 mm 4 m/S 738 mmHg 93%
    21:00 +3°C° 0.2 mm 4 m/S 738 mmHg 93%
    22:00 +3°C° 0.3 mm 4 m/S 738 mmHg 94%
    23:00 +3°C° 0.3 mm 3 m/S 738 mmHg 94%

    18 November, Montag

    Zeit Temperatur Niederschläge Wind Luftdruck Luftfeuchtigkeit
    00:00 +2°C° 0.3 mm 3 m/S 738 mmHg 95%
    01:00 +1°C° 1.1 mm 4 m/S 738 mmHg 95%
    02:00 +1°C° 1.1 mm 4 m/S 738 mmHg 96%
    03:00 +1°C° 1.1 mm 5 m/S 738 mmHg 96%
    04:00 +1°C° 0.8 mm 5 m/S 739 mmHg 96%
    05:00 +1°C° 0.8 mm 5 m/S 739 mmHg 96%
    06:00 +1°C° 0.8 mm 5 m/S 739 mmHg 96%
    07:00 +1°C° 1 mm 5 m/S 740 mmHg 96%
    08:00 +1°C° 1 mm 5 m/S 740 mmHg 96%
    09:00 +1°C° 1 mm 6 m/S 741 mmHg 96%
    10:00 +1°C° 0.7 mm 6 m/S 741 mmHg 96%
    11:00 +1°C° 0.7 mm 6 m/S 741 mmHg 96%
    12:00 +2°C° 0.7 mm 6 m/S 741 mmHg 96%
    13:00 +2°C° 0.2 mm 6 m/S 741 mmHg 95%
    14:00 +2°C° 0.2 mm 6 m/S 741 mmHg 94%
    15:00 +3°C° 0.2 mm 6 m/S 742 mmHg 92%
    16:00 +3°C° 0.1 mm 6 m/S 742 mmHg 92%
    17:00 +3°C° 0.1 mm 6 m/S 742 mmHg 91%
    18:00 +3°C° 0.1 mm 6 m/S 743 mmHg 91%
    19:00 +3°C° 0.3 mm 6 m/S 743 mmHg 92%
    20:00 +3°C° 0.3 mm 5 m/S 744 mmHg 93%
    21:00 +3°C° 0.3 mm 5 m/S 744 mmHg 93%
    22:00 +4°C° 0.2 mm 4 m/S 744 mmHg 94%
    23:00 +4°C° 0.2 mm 4 m/S 745 mmHg 94%

    19 November, Dienstag

    Zeit Temperatur Niederschläge Wind Luftdruck Luftfeuchtigkeit
    00:00 +4°C° 0.2 mm 3 m/S 745 mmHg 94%
    01:00 +4°C° 0.1 mm 3 m/S 745 mmHg 95%
    02:00 +4°C° 0.1 mm 3 m/S 745 mmHg 95%
    03:00 +3°C° 0.1 mm 3 m/S 745 mmHg 95%
    04:00 +4°C° 0.1 mm 2 m/S 745 mmHg 95%
    05:00 +4°C° 0.1 mm 2 m/S 746 mmHg 95%
    06:00 +4°C° 0.1 mm 2 m/S 746 mmHg 96%
    07:00 +4°C° 0.2 mm 2 m/S 746 mmHg 94%
    08:00 +6°C° 0.2 mm 1 m/S 747 mmHg 93%
    09:00 +6°C° 0.2 mm 1 m/S 747 mmHg 92%
    10:00 +6°C° 0.1 mm 1 m/S 747 mmHg 88%
    11:00 +7°C° 0.1 mm 1 m/S 747 mmHg 84%
    12:00 +7°C° 0.1 mm 1 m/S 747 mmHg 80%
    13:00 +7°C° 0.1 mm 1 m/S 747 mmHg 81%
    14:00 +7°C° 0.1 mm 1 m/S 747 mmHg 82%
    15:00 +6°C° 0.1 mm 0 m/S 746 mmHg 83%
    16:00 +6°C° 0 mm 1 m/S 746 mmHg 85%
    17:00 +6°C° 0 mm 1 m/S 746 mmHg 88%
    18:00 +5°C° 0 mm 1 m/S 746 mmHg 90%
    19:00 +4°C° 0 mm 1 m/S 746 mmHg 91%
    20:00 +4°C° 0 mm 1 m/S 746 mmHg 92%
    21:00 +3°C° 0 mm 1 m/S 746 mmHg 93%
    22:00 +3°C° 0 mm 1 m/S 746 mmHg 94%
    23:00 +3°C° 0 mm 1 m/S 746 mmHg 94%

    20 November, Mittwoch

    Zeit Temperatur Niederschläge Wind Luftdruck Luftfeuchtigkeit
    00:00 +2°C° 0 mm 2 m/S 746 mmHg 94%
    01:00 +1°C° 0 mm 2 m/S 745 mmHg 94%
    02:00 +1°C° 0 mm 2 m/S 745 mmHg 94%
    03:00 +1°C° 0 mm 2 m/S 745 mmHg 94%
    04:00 +1°C° 0 mm 2 m/S 744 mmHg 94%
    05:00 +1°C° 0 mm 2 m/S 744 mmHg 94%
    06:00 -1°C° 0 mm 2 m/S 744 mmHg 94%
    07:00 +1°C° 0 mm 2 m/S 744 mmHg 91%
    08:00 +2°C° 0 mm 2 m/S 744 mmHg 89%
    09:00 +2°C° 0 mm 3 m/S 744 mmHg 86%
    10:00 +3°C° 0 mm 3 m/S 743 mmHg 83%
    11:00 +4°C° 0 mm 3 m/S 743 mmHg 79%
    12:00 +5°C° 0 mm 3 m/S 743 mmHg 75%
    13:00 +5°C° 0 mm 3 m/S 742 mmHg 78%
    14:00 +5°C° 0 mm 3 m/S 742 mmHg 80%
    15:00 +5°C° 0 mm 2 m/S 741 mmHg 82%
    16:00 +5°C° 0 mm 2 m/S 741 mmHg 83%
    17:00 +4°C° 0 mm 2 m/S 741 mmHg 84%
    18:00 +4°C° 0 mm 2 m/S 741 mmHg 84%
    19:00 +4°C° 0.3 mm 2 m/S 741 mmHg 86%
    20:00 +5°C° 0.3 mm 2 m/S 741 mmHg 87%
    21:00 +5°C° 0.3 mm 2 m/S 741 mmHg 88%
    22:00 +5°C° 0.1 mm 2 m/S 741 mmHg 87%
    23:00 +5°C° 0.1 mm 2 m/S 741 mmHg 86%
    Mehr zeigen